IGO1151 VIDP-VNKT

Flight info

Callsign IGO1151
Flight time 1h 11m
Altitude 37000
Route LKN7A LKN G598 SMR DCT RATAN
Aircraft A320/M-SDE3FGHIRWY/LB1

Departure

Time 2026-05-06 06:00
Airport Indira Gandhi International Airport (VIDP)

Arrival

Time 2026-05-06 07:11
Airport Tribhuvan International Airport (VNKT)
Time Latitude Longitude Altitude Speed Heading
2026-05-06 05:23 28.55957 77.08911 741 ft 0 kts 278°
2026-05-06 05:28 28.55955 77.08925 741 ft 4 kts 282°
2026-05-06 05:28 28.55946 77.08952 739 ft 4 kts 320°
2026-05-06 05:29 28.55931 77.08959 741 ft 0 kts
2026-05-06 05:31 28.55957 77.08911 742 ft 6 kts 278°
2026-05-06 05:41 28.55956 77.08914 741 ft 3 kts 278°
2026-05-06 05:41 28.55951 77.08943 741 ft 4 kts 299°
2026-05-06 05:42 28.55935 77.08959 742 ft 3 kts
2026-05-06 05:42 28.55931 77.08959 742 ft 0 kts
2026-05-06 05:45 28.55939 77.08960 742 ft 3 kts
2026-05-06 05:45 28.55970 77.08965 741 ft 6 kts
2026-05-06 05:45 28.56023 77.08975 741 ft 9 kts 11°
2026-05-06 05:45 28.56096 77.08993 739 ft 12 kts 16°
2026-05-06 05:46 28.56171 77.09050 741 ft 14 kts 21°
2026-05-06 05:46 28.56273 77.09079 740 ft 17 kts 15°
2026-05-06 05:46 28.56378 77.09129 741 ft 15 kts 56°
2026-05-06 05:46 28.56406 77.09246 742 ft 16 kts 77°
2026-05-06 05:47 28.56575 77.09589 746 ft 0 kts 33°
2026-05-06 05:49 28.56579 77.09592 745 ft 2 kts 33°
2026-05-06 05:49 28.56598 77.09606 745 ft 5 kts 31°
2026-05-06 05:49 28.56635 77.09624 747 ft 7 kts 21°
2026-05-06 05:49 28.56686 77.09651 745 ft 9 kts 26°
2026-05-06 05:50 28.56749 77.09683 746 ft 11 kts 24°
2026-05-06 05:50 28.56824 77.09719 747 ft 13 kts 23°
2026-05-06 05:50 28.56880 77.09792 750 ft 13 kts 86°
2026-05-06 05:50 28.56876 77.09900 752 ft 14 kts 90°
2026-05-06 05:51 28.56875 77.10015 754 ft 15 kts 92°
2026-05-06 05:51 28.56871 77.10136 756 ft 16 kts 92°
2026-05-06 05:51 28.56868 77.10264 756 ft 17 kts 92°
2026-05-06 05:51 28.56864 77.10399 761 ft 18 kts 91°
2026-05-06 05:52 28.56862 77.10541 764 ft 18 kts 91°
2026-05-06 05:52 28.56859 77.10689 767 ft 19 kts 91°
2026-05-06 05:52 28.56856 77.10841 770 ft 20 kts 91°
2026-05-06 05:52 28.56859 77.10986 773 ft 16 kts 63°
2026-05-06 05:53 28.56949 77.10968 774 ft 14 kts 324°
2026-05-06 05:53 28.57002 77.10875 772 ft 16 kts 283°
2026-05-06 05:53 28.57009 77.10799 769 ft 0 kts 270°
2026-05-06 05:53 28.57009 77.10794 769 ft 3 kts 270°
2026-05-06 05:54 28.57010 77.10750 768 ft 8 kts 271°
2026-05-06 05:54 28.57012 77.10665 765 ft 8 kts 271°
2026-05-06 05:54 28.57012 77.10662 765 ft 0 kts 271°
2026-05-06 05:59 28.57013 77.10636 765 ft 18 kts 271°
2026-05-06 05:59 28.57024 77.10097 755 ft 115 kts 271°
2026-05-06 05:59 28.57047 77.08938 909 ft 167 kts 271°
2026-05-06 06:00 28.57092 77.07556 1562 ft 188 kts 279°
2026-05-06 06:00 28.57554 77.06081 2115 ft 206 kts 301°
2026-05-06 06:00 28.58030 77.04526 2714 ft 216 kts 278°
2026-05-06 06:00 28.58198 77.02713 3038 ft 245 kts 277°
2026-05-06 06:01 28.58460 77.00658 3252 ft 279 kts 279°
2026-05-06 06:01 28.58792 76.98338 3604 ft 305 kts 280°
2026-05-06 06:01 28.59148 76.95877 4117 ft 320 kts 282°
2026-05-06 06:01 28.59692 76.93508 5504 ft 299 kts 288°
2026-05-06 06:02 28.60281 76.91342 6874 ft 284 kts 289°
2026-05-06 06:02 28.60788 76.89188 7915 ft 282 kts 279°
2026-05-06 06:02 28.60606 76.86968 8831 ft 288 kts 251°
2026-05-06 06:02 28.59455 76.85084 9705 ft 299 kts 223°
2026-05-06 06:03 28.57566 76.84019 10470 ft 313 kts 194°
2026-05-06 06:03 28.55365 76.83872 11219 ft 320 kts 183°
2026-05-06 06:03 28.53124 76.83873 11970 ft 324 kts 182°
2026-05-06 06:03 28.50854 76.83877 12700 ft 329 kts 183°
2026-05-06 06:04 28.48549 76.83874 13419 ft 333 kts 183°
2026-05-06 06:04 28.46212 76.83863 14093 ft 338 kts 183°
2026-05-06 06:04 28.43852 76.83846 14775 ft 341 kts 183°
2026-05-06 06:04 28.41469 76.83827 15468 ft 344 kts 183°
2026-05-06 06:05 28.39068 76.83808 16164 ft 346 kts 183°
2026-05-06 06:05 28.36606 76.83874 16456 ft 365 kts 180°
2026-05-06 06:05 28.34004 76.84063 16635 ft 384 kts 176°
2026-05-06 06:05 28.31361 76.84748 17079 ft 396 kts 160°
2026-05-06 06:06 28.28908 76.86210 17683 ft 402 kts 145°
2026-05-06 06:06 28.26801 76.88310 18317 ft 405 kts 131°
2026-05-06 06:06 28.25191 76.90933 18883 ft 407 kts 115°
2026-05-06 06:06 28.24888 76.91643 19024 ft 408 kts 112°
2026-05-06 06:07 28.23830 76.94503 19538 ft 411 kts 110°
2026-05-06 06:07 28.23264 76.96068 19834 ft 413 kts 110°
2026-05-06 06:08 28.22943 76.96963 20005 ft 414 kts 110°
2026-05-06 06:08 28.21859 77.00003 20554 ft 418 kts 110°
2026-05-06 06:08 28.20767 77.03079 21096 ft 422 kts 110°
2026-05-06 06:08 28.19660 77.06182 21621 ft 427 kts 110°
2026-05-06 06:09 28.18537 77.09312 22141 ft 431 kts 110°
2026-05-06 06:09 28.17399 77.12470 22661 ft 435 kts 110°
2026-05-06 06:09 28.16165 77.15622 23194 ft 440 kts 116°
2026-05-06 06:09 28.14734 77.18711 23662 ft 444 kts 116°
2026-05-06 06:10 28.13288 77.21823 24088 ft 448 kts 116°
2026-05-06 06:10 28.11831 77.24959 24548 ft 451 kts 117°
2026-05-06 06:10 28.10371 77.28104 25016 ft 453 kts 117°
2026-05-06 06:10 28.08901 77.31269 25434 ft 456 kts 117°
2026-05-06 06:11 28.07417 77.34456 25810 ft 459 kts 117°
2026-05-06 06:11 28.05918 77.37672 26167 ft 464 kts 117°
2026-05-06 06:11 28.04407 77.40916 26533 ft 468 kts 117°
2026-05-06 06:11 28.02883 77.44188 26905 ft 472 kts 117°
2026-05-06 06:12 28.01348 77.47479 27269 ft 475 kts 117°
2026-05-06 06:12 27.99800 77.50795 27649 ft 478 kts 118°
2026-05-06 06:12 27.98254 77.54140 28006 ft 481 kts 115°
2026-05-06 06:12 27.97011 77.57663 28372 ft 484 kts 106°
2026-05-06 06:13 27.96135 77.61350 28747 ft 487 kts 103°
2026-05-06 06:13 27.95286 77.65069 29111 ft 490 kts 104°
2026-05-06 06:13 27.94422 77.68809 29471 ft 493 kts 104°
2026-05-06 06:13 27.93544 77.72572 29823 ft 497 kts 104°
2026-05-06 06:14 27.92658 77.76361 30124 ft 500 kts 104°
2026-05-06 06:14 27.91767 77.80177 30399 ft 503 kts 104°
2026-05-06 06:14 27.90871 77.84015 30666 ft 507 kts 104°
2026-05-06 06:14 27.89967 77.87880 30927 ft 510 kts 104°
2026-05-06 06:15 27.89057 77.91769 31175 ft 514 kts 104°
2026-05-06 06:15 27.88141 77.95685 31426 ft 517 kts 104°
2026-05-06 06:15 27.87218 77.99620 31718 ft 519 kts 104°
2026-05-06 06:15 27.86289 78.03557 32089 ft 519 kts 104°
2026-05-06 06:16 27.85360 78.07501 32435 ft 520 kts 104°
2026-05-06 06:16 27.84431 78.11450 32767 ft 521 kts 104°
2026-05-06 06:16 27.83499 78.15404 33088 ft 522 kts 104°
2026-05-06 06:16 27.82426 78.19323 33406 ft 523 kts 111°
2026-05-06 06:17 27.81113 78.23159 33733 ft 524 kts 111°
2026-05-06 06:17 27.79817 78.26951 34015 ft 525 kts 111°
2026-05-06 06:17 27.78507 78.30800 34298 ft 525 kts 111°
2026-05-06 06:17 27.77198 78.34649 34602 ft 525 kts 111°
2026-05-06 06:18 27.75889 78.38493 34909 ft 524 kts 111°
2026-05-06 06:18 27.74576 78.42326 35207 ft 524 kts 112°
2026-05-06 06:18 27.73257 78.46154 35502 ft 523 kts 112°
2026-05-06 06:18 27.71939 78.49978 35799 ft 522 kts 112°
2026-05-06 06:19 27.70627 78.53797 36088 ft 522 kts 112°
2026-05-06 06:19 27.69322 78.57612 36368 ft 521 kts 112°
2026-05-06 06:19 27.68016 78.61426 36638 ft 520 kts 112°
2026-05-06 06:19 27.66707 78.65232 36827 ft 521 kts 112°
2026-05-06 06:20 27.64087 78.72818 36862 ft 517 kts 112°
2026-05-06 06:20 27.61473 78.80363 36851 ft 516 kts 112°
2026-05-06 06:21 27.58865 78.87898 36873 ft 516 kts 112°
2026-05-06 06:21 27.56255 78.95429 36874 ft 516 kts 112°
2026-05-06 06:22 27.53639 79.02952 36871 ft 516 kts 112°
2026-05-06 06:22 27.51015 79.10477 36886 ft 516 kts 113°
2026-05-06 06:23 27.48389 79.17995 36888 ft 515 kts 113°
2026-05-06 06:23 27.45761 79.25502 36888 ft 515 kts 113°
2026-05-06 06:24 27.43131 79.33003 36889 ft 515 kts 113°
2026-05-06 06:24 27.40498 79.40503 36890 ft 515 kts 113°
2026-05-06 06:25 27.37860 79.47996 36894 ft 515 kts 113°
2026-05-06 06:26 27.33555 79.59025 36881 ft 512 kts 119°
2026-05-06 06:26 27.30316 79.66162 36885 ft 512 kts 120°
2026-05-06 06:27 27.27090 79.73285 36882 ft 511 kts 119°
2026-05-06 06:27 27.23950 79.80463 36890 ft 512 kts 118°
2026-05-06 06:28 27.20852 79.87652 36891 ft 511 kts 118°
2026-05-06 06:28 27.17741 79.94825 36894 ft 510 kts 119°
2026-05-06 06:29 27.15135 80.00766 36891 ft 510 kts 119°
2026-05-06 06:29 27.11995 80.07904 36838 ft 510 kts 119°
2026-05-06 06:30 27.08860 80.15040 36869 ft 510 kts 119°
2026-05-06 06:30 27.05726 80.22173 36890 ft 509 kts 119°
2026-05-06 06:31 27.02586 80.29290 36896 ft 509 kts 119°
2026-05-06 06:31 26.99446 80.36396 36893 ft 508 kts 119°
2026-05-06 06:32 26.96307 80.43496 36892 ft 508 kts 119°
2026-05-06 06:32 26.93166 80.50588 36891 ft 508 kts 120°
2026-05-06 06:33 26.90020 80.57677 36898 ft 508 kts 120°
2026-05-06 06:33 26.86883 80.64761 36907 ft 507 kts 120°
2026-05-06 06:34 26.83740 80.71832 36885 ft 507 kts 120°
2026-05-06 06:34 26.80580 80.78894 36905 ft 507 kts 120°
2026-05-06 06:35 26.77647 80.86085 36915 ft 511 kts 109°
2026-05-06 06:35 26.76537 80.93932 36920 ft 514 kts 89°
2026-05-06 06:36 26.77249 81.01884 36907 ft 514 kts 82°
2026-05-06 06:36 26.78126 81.09831 36897 ft 515 kts 83°
2026-05-06 06:37 26.78997 81.17788 36881 ft 515 kts 83°
2026-05-06 06:37 26.79866 81.25746 36882 ft 515 kts 83°
2026-05-06 06:38 26.80732 81.33712 36883 ft 515 kts 83°
2026-05-06 06:38 26.81595 81.41678 36882 ft 516 kts 83°
2026-05-06 06:39 26.82454 81.49649 36884 ft 516 kts 83°
2026-05-06 06:39 26.83310 81.57621 36881 ft 516 kts 83°
2026-05-06 06:40 26.84162 81.65594 36881 ft 516 kts 83°
2026-05-06 06:40 26.85004 81.73564 36879 ft 515 kts 83°
2026-05-06 06:41 26.85837 81.81533 36881 ft 515 kts 83°
2026-05-06 06:41 26.86672 81.89493 36880 ft 515 kts 83°
2026-05-06 06:42 26.87498 81.97456 36880 ft 515 kts 83°
2026-05-06 06:42 26.88330 82.05427 36881 ft 515 kts 83°
2026-05-06 06:43 26.89155 82.13400 36882 ft 515 kts 84°
2026-05-06 06:43 26.89964 82.21370 36881 ft 515 kts 84°
2026-05-06 06:44 26.90767 82.29287 36880 ft 515 kts 84°
2026-05-06 06:44 26.91572 82.37254 36879 ft 515 kts 84°
2026-05-06 06:45 26.92376 82.45225 36878 ft 515 kts 84°
2026-05-06 06:45 26.93173 82.53193 36877 ft 515 kts 84°
2026-05-06 06:46 26.93971 82.61163 36874 ft 515 kts 84°
2026-05-06 06:46 26.94758 82.69140 36873 ft 515 kts 84°
2026-05-06 06:47 26.95536 82.77114 36878 ft 515 kts 84°
2026-05-06 06:47 26.96321 82.85088 36872 ft 515 kts 84°
2026-05-06 06:48 26.97103 82.93069 36870 ft 515 kts 84°
2026-05-06 06:48 26.97872 83.01056 36873 ft 515 kts 84°
2026-05-06 06:49 26.98668 83.09037 36873 ft 515 kts 84°
2026-05-06 06:49 26.99506 83.17015 36874 ft 515 kts 84°
2026-05-06 06:50 27.00340 83.25004 36875 ft 516 kts 84°
2026-05-06 06:50 27.01146 83.33003 36872 ft 516 kts 84°
2026-05-06 06:51 27.01937 83.41002 36912 ft 516 kts 84°
2026-05-06 06:51 27.02737 83.48996 36875 ft 515 kts 84°
2026-05-06 06:52 27.03532 83.56977 36863 ft 515 kts 84°
2026-05-06 06:52 27.04315 83.64912 36848 ft 515 kts 84°
2026-05-06 06:53 27.05106 83.72953 36863 ft 515 kts 84°
2026-05-06 06:53 27.05493 83.76893 36521 ft 517 kts 85°
2026-05-06 06:53 27.05889 83.80954 35312 ft 531 kts 85°
2026-05-06 06:53 27.06285 83.85082 34603 ft 531 kts 85°
2026-05-06 06:54 27.06683 83.89238 34062 ft 528 kts 85°
2026-05-06 06:54 27.07075 83.93325 33400 ft 526 kts 85°
2026-05-06 06:54 27.07465 83.97391 32817 ft 523 kts 85°
2026-05-06 06:54 27.07855 84.01435 32207 ft 520 kts 85°
2026-05-06 06:55 27.08243 84.05452 31691 ft 515 kts 86°
2026-05-06 06:55 27.08626 84.09426 31073 ft 512 kts 86°
2026-05-06 06:55 27.09005 84.13363 30595 ft 500 kts 86°
2026-05-06 06:55 27.09374 84.17210 29801 ft 490 kts 86°
2026-05-06 06:56 27.09729 84.20947 29256 ft 473 kts 86°
2026-05-06 06:56 27.10068 84.24518 28752 ft 463 kts 86°
2026-05-06 06:56 27.10405 84.28100 28222 ft 461 kts 86°
2026-05-06 06:56 27.10737 84.31666 27737 ft 458 kts 86°
2026-05-06 06:57 27.11063 84.35214 27245 ft 456 kts 86°
2026-05-06 06:57 27.11389 84.38748 26781 ft 454 kts 86°
2026-05-06 06:57 27.11713 84.42265 26308 ft 452 kts 86°
2026-05-06 06:57 27.12037 84.45772 25827 ft 451 kts 86°
2026-05-06 06:58 27.12357 84.49265 25351 ft 449 kts 86°
2026-05-06 06:58 27.12678 84.52751 24854 ft 449 kts 86°
2026-05-06 06:58 27.13001 84.56235 24364 ft 448 kts 86°
2026-05-06 06:58 27.13325 84.59704 23995 ft 444 kts 86°
2026-05-06 06:59 27.13645 84.63159 23438 ft 443 kts 86°
2026-05-06 06:59 27.13956 84.66552 22752 ft 431 kts 86°
2026-05-06 06:59 27.14242 84.69841 22262 ft 416 kts 87°
2026-05-06 06:59 27.14497 84.73016 21766 ft 401 kts 87°
2026-05-06 07:00 27.14734 84.76130 21282 ft 400 kts 87°
2026-05-06 07:00 27.14963 84.79236 20790 ft 399 kts 87°
2026-05-06 07:00 27.15194 84.82331 20310 ft 397 kts 87°
2026-05-06 07:00 27.15426 84.85417 19812 ft 396 kts 87°
2026-05-06 07:01 27.15659 84.88490 19320 ft 395 kts 86°
2026-05-06 07:01 27.15894 84.91553 18818 ft 393 kts 86°
2026-05-06 07:01 27.16132 84.94597 18441 ft 388 kts 85°
2026-05-06 07:01 27.16689 84.97556 17924 ft 388 kts 70°
2026-05-06 07:02 27.17876 85.00235 17543 ft 381 kts 56°
2026-05-06 07:02 27.19472 85.02600 17023 ft 379 kts 51°
2026-05-06 07:02 27.21090 85.04916 16531 ft 375 kts 51°
2026-05-06 07:02 27.22691 85.07217 16077 ft 372 kts 52°
2026-05-06 07:03 27.24271 85.09501 15627 ft 368 kts 52°
2026-05-06 07:03 27.25833 85.11764 15178 ft 365 kts 52°
2026-05-06 07:03 27.27384 85.14006 14772 ft 361 kts 52°
2026-05-06 07:03 27.28952 85.16227 14025 ft 360 kts 47°
2026-05-06 07:04 27.30780 85.18036 13527 ft 343 kts 33°
2026-05-06 07:04 27.32844 85.19247 13057 ft 328 kts 21°
2026-05-06 07:04 27.34913 85.20188 12646 ft 314 kts 21°
2026-05-06 07:04 27.36903 85.21093 12249 ft 303 kts 21°
2026-05-06 07:05 27.38820 85.21965 11864 ft 292 kts 21°
2026-05-06 07:05 27.40672 85.22808 11516 ft 282 kts 22°
2026-05-06 07:05 27.42465 85.23617 11144 ft 273 kts 22°
2026-05-06 07:05 27.44204 85.24394 10793 ft 265 kts 22°
2026-05-06 07:06 27.45892 85.25146 10442 ft 257 kts 22°
2026-05-06 07:06 27.47537 85.25878 10099 ft 251 kts 22°
2026-05-06 07:06 27.49143 85.26600 9744 ft 245 kts 23°
2026-05-06 07:06 27.50706 85.27308 9409 ft 239 kts 23°
2026-05-06 07:07 27.52197 85.27980 9128 ft 228 kts 23°
2026-05-06 07:07 27.53618 85.28617 8870 ft 211 kts 22°
2026-05-06 07:07 27.54957 85.29222 8351 ft 206 kts 22°
2026-05-06 07:07 27.56266 85.29816 7848 ft 199 kts 22°
2026-05-06 07:08 27.57519 85.30386 7400 ft 190 kts 22°
2026-05-06 07:08 27.58700 85.30924 6990 ft 178 kts 22°
2026-05-06 07:08 27.59826 85.31435 6582 ft 172 kts 22°
2026-05-06 07:08 27.60939 85.31936 6081 ft 171 kts 21°
2026-05-06 07:09 27.62010 85.32416 5780 ft 161 kts 21°
2026-05-06 07:09 27.63031 85.32871 5439 ft 156 kts 22°
2026-05-06 07:09 27.64019 85.33305 5275 ft 151 kts 24°
2026-05-06 07:09 27.64992 85.33734 4922 ft 150 kts 24°
2026-05-06 07:10 27.65931 85.34183 4683 ft 146 kts 26°
2026-05-06 07:10 27.66871 85.34616 4475 ft 147 kts 26°
2026-05-06 07:10 27.67808 85.35061 4425 ft 146 kts 25°
2026-05-06 07:10 27.68752 85.35497 4354 ft 144 kts 26°
2026-05-06 07:11 27.69536 85.35865 4389 ft 89 kts 23°
2026-05-06 07:11 27.69845 85.35998 4398 ft 15 kts 20°
2026-05-06 07:11 27.69905 85.35937 4398 ft 14 kts 278°
2026-05-06 07:11 27.69853 85.35883 4394 ft 12 kts 202°
2026-05-06 07:12 27.69786 85.35834 4390 ft 11 kts 258°
2026-05-06 07:12 27.69812 85.35771 4384 ft 11 kts 291°
2026-05-06 07:12 27.69819 85.35751 4385 ft 0 kts 292°